When you browse on this site, cookies collect data to enhance your experience and personalize the content and advertising you see.
Visit our Privacy Policy to learn more. By continuing to use the site, you agree to this use of cookies and data.
  • In Germany
  • List of Countries
  • For 7 days
  • Water Temperature
  • Satellite Maps
  • Weather Map
  • Weather Widgets
  • user-avatar
    Login

    Hourly Weather Hurghada

    Today, 16 January, Wednesday

    Time Temperature Precipitation Wind Pressure Humidity
    00:00 +5°C° 0 mm 3 mps 683 mmHg 40%
    01:00 +5°C° 0 mm 3 mps 683 mmHg 40%
    02:00 +5°C° 0 mm 3 mps 683 mmHg 41%
    03:00 +4°C° 0 mm 3 mps 682 mmHg 41%
    04:00 +4°C° 0 mm 3 mps 682 mmHg 41%
    05:00 +4°C° 0 mm 3 mps 682 mmHg 41%
    06:00 +4°C° 0 mm 3 mps 683 mmHg 38%
    07:00 +5°C° 0 mm 3 mps 683 mmHg 34%
    08:00 +7°C° 0 mm 3 mps 683 mmHg 30%
    09:00 +9°C° 0 mm 3 mps 684 mmHg 27%
    10:00 +10°C° 0 mm 4 mps 684 mmHg 25%
    11:00 +12°C° 0 mm 4 mps 684 mmHg 22%
    12:00 +12°C° 0 mm 4 mps 684 mmHg 24%
    13:00 +13°C° 0 mm 5 mps 684 mmHg 26%
    14:00 +14°C° 0 mm 5 mps 684 mmHg 27%
    15:00 +13°C° 0 mm 5 mps 684 mmHg 28%
    16:00 +12°C° 0 mm 5 mps 684 mmHg 29%
    17:00 +10°C° 0 mm 5 mps 684 mmHg 30%
    18:00 +10°C° 0 mm 4 mps 684 mmHg 32%
    19:00 +8°C° 0 mm 4 mps 684 mmHg 34%
    20:00 +7°C° 0 mm 4 mps 684 mmHg 36%
    21:00 +6°C° 0 mm 4 mps 685 mmHg 38%
    22:00 +5°C° 0 mm 4 mps 685 mmHg 40%
    23:00 +4°C° 0 mm 4 mps 685 mmHg 41%

    Tomorrow, 17 January, Thursday

    Time Temperature Precipitation Wind Pressure Humidity
    00:00 +4°C° 0 mm 3 mps 685 mmHg 43%
    01:00 +3°C° 0 mm 3 mps 685 mmHg 44%
    02:00 +3°C° 0 mm 3 mps 685 mmHg 45%
    03:00 +3°C° 0 mm 2 mps 685 mmHg 48%
    04:00 +3°C° 0 mm 2 mps 685 mmHg 51%
    05:00 +2°C° 0 mm 2 mps 685 mmHg 54%
    06:00 +4°C° 0 mm 1 mps 685 mmHg 50%
    07:00 +5°C° 0 mm 1 mps 686 mmHg 45%
    08:00 +5°C° 0 mm 1 mps 686 mmHg 41%
    09:00 +6°C° 0 mm 2 mps 687 mmHg 36%
    10:00 +8°C° 0 mm 2 mps 687 mmHg 32%
    11:00 +10°C° 0 mm 2 mps 688 mmHg 28%
    12:00 +12°C° 0 mm 2 mps 687 mmHg 25%
    13:00 +13°C° 0 mm 2 mps 687 mmHg 23%
    14:00 +14°C° 0 mm 2 mps 687 mmHg 20%
    15:00 +13°C° 0 mm 2 mps 687 mmHg 22%
    16:00 +12°C° 0 mm 2 mps 687 mmHg 24%
    17:00 +12°C° 0 mm 2 mps 686 mmHg 26%
    18:00 +10°C° 0 mm 2 mps 686 mmHg 32%
    19:00 +8°C° 0 mm 2 mps 686 mmHg 37%
    20:00 +8°C° 0 mm 1 mps 686 mmHg 43%
    21:00 +8°C° 0 mm 1 mps 686 mmHg 42%
    22:00 +7°C° 0 mm 1 mps 686 mmHg 42%
    23:00 +7°C° 0 mm 1 mps 686 mmHg 42%

    Day after tomorrow, 18 January, Friday

    Time Temperature Precipitation Wind Pressure Humidity
    00:00 +7°C° 0 mm 1 mps 685 mmHg 43%
    01:00 +6°C° 0 mm 1 mps 685 mmHg 44%
    02:00 +6°C° 0 mm 1 mps 685 mmHg 45%
    03:00 +6°C° 0 mm 1 mps 685 mmHg 48%
    04:00 +5°C° 0 mm 1 mps 684 mmHg 50%
    05:00 +5°C° 0 mm 1 mps 684 mmHg 53%
    06:00 +6°C° 0 mm 1 mps 685 mmHg 51%
    07:00 +7°C° 0 mm 1 mps 685 mmHg 50%
    08:00 +8°C° 0 mm 1 mps 686 mmHg 48%
    09:00 +9°C° 0 mm 2 mps 686 mmHg 43%
    10:00 +12°C° 0 mm 2 mps 687 mmHg 38%
    11:00 +13°C° 0 mm 2 mps 687 mmHg 34%
    12:00 +14°C° 0 mm 2 mps 686 mmHg 31%
    13:00 +15°C° 0 mm 2 mps 686 mmHg 29%
    14:00 +16°C° 0 mm 3 mps 686 mmHg 26%
    15:00 +14°C° 0 mm 3 mps 685 mmHg 30%
    16:00 +13°C° 0 mm 3 mps 685 mmHg 34%
    17:00 +13°C° 0 mm 3 mps 685 mmHg 38%
    18:00 +12°C° 0 mm 2 mps 685 mmHg 45%
    19:00 +10°C° 0 mm 2 mps 685 mmHg 52%
    20:00 +9°C° 0 mm 2 mps 685 mmHg 59%
    21:00 +9°C° 0 mm 1 mps 685 mmHg 58%
    22:00 +9°C° 0 mm 1 mps 685 mmHg 58%
    23:00 +8°C° 0 mm 1 mps 685 mmHg 57%

    19 January, Saturday

    Time Temperature Precipitation Wind Pressure Humidity
    00:00 +8°C° 0 mm 1 mps 684 mmHg 54%
    01:00 +7°C° 0 mm 1 mps 684 mmHg 51%
    02:00 +7°C° 0 mm 1 mps 684 mmHg 48%
    03:00 +7°C° 0 mm 1 mps 684 mmHg 46%
    04:00 +6°C° 0 mm 1 mps 683 mmHg 44%
    05:00 +6°C° 0 mm 1 mps 683 mmHg 41%
    06:00 +7°C° 0 mm 1 mps 684 mmHg 38%
    07:00 +9°C° 0 mm 1 mps 685 mmHg 35%
    08:00 +10°C° 0 mm 1 mps 685 mmHg 31%
    09:00 +12°C° 0 mm 2 mps 685 mmHg 28%
    10:00 +13°C° 0 mm 2 mps 686 mmHg 25%
    11:00 +15°C° 0 mm 2 mps 686 mmHg 22%
    12:00 +16°C° 0 mm 2 mps 686 mmHg 21%
    13:00 +16°C° 0 mm 2 mps 685 mmHg 20%
    14:00 +17°C° 0 mm 2 mps 685 mmHg 19%
    15:00 +16°C° 0 mm 2 mps 685 mmHg 22%
    16:00 +16°C° 0 mm 2 mps 685 mmHg 25%
    17:00 +15°C° 0 mm 2 mps 685 mmHg 27%
    18:00 +13°C° 0 mm 2 mps 685 mmHg 33%
    19:00 +12°C° 0 mm 2 mps 685 mmHg 39%
    20:00 +11°C° 0 mm 1 mps 685 mmHg 44%
    21:00 +10°C° 0 mm 1 mps 685 mmHg 44%
    22:00 +10°C° 0 mm 1 mps 685 mmHg 43%
    23:00 +10°C° 0 mm 1 mps 684 mmHg 42%

    20 January, Sunday

    Time Temperature Precipitation Wind Pressure Humidity
    00:00 +9°C° 0 mm 1 mps 684 mmHg 41%
    01:00 +9°C° 0 mm 1 mps 684 mmHg 40%
    02:00 +9°C° 0 mm 1 mps 684 mmHg 39%
    03:00 +8°C° 0 mm 1 mps 684 mmHg 38%
    04:00 +8°C° 0 mm 1 mps 683 mmHg 37%
    05:00 +8°C° 0 mm 1 mps 683 mmHg 37%
    06:00 +9°C° 0 mm 1 mps 684 mmHg 34%
    07:00 +10°C° 0 mm 1 mps 685 mmHg 30%
    08:00 +12°C° 0 mm 1 mps 685 mmHg 27%
    09:00 +13°C° 0 mm 1 mps 686 mmHg 23%
    10:00 +15°C° 0 mm 1 mps 686 mmHg 20%
    11:00 +18°C° 0 mm 1 mps 687 mmHg 16%
    12:00 +19°C° 0 mm 1 mps 686 mmHg 16%
    13:00 +20°C° 0 mm 1 mps 686 mmHg 15%
    14:00 +19°C° 0 mm 2 mps 685 mmHg 14%
    15:00 +18°C° 0 mm 2 mps 685 mmHg 17%
    16:00 +19°C° 0 mm 1 mps 685 mmHg 20%
    17:00 +18°C° 0 mm 1 mps 685 mmHg 23%
    18:00 +16°C° 0 mm 1 mps 685 mmHg 26%
    19:00 +14°C° 0 mm 1 mps 685 mmHg 30%
    20:00 +13°C° 0 mm 1 mps 685 mmHg 34%
    21:00 +13°C° 0 mm 1 mps 685 mmHg 33%
    22:00 +13°C° 0 mm 1 mps 685 mmHg 32%
    23:00 +12°C° 0 mm 0 mps 685 mmHg 31%

    21 January, Monday

    Time Temperature Precipitation Wind Pressure Humidity
    00:00 +12°C° 0 mm 1 mps 684 mmHg 30%
    01:00 +12°C° 0 mm 1 mps 684 mmHg 29%
    02:00 +11°C° 0 mm 1 mps 684 mmHg 28%
    03:00 +11°C° 0 mm 1 mps 684 mmHg 27%
    04:00 +11°C° 0 mm 1 mps 683 mmHg 26%
    05:00 +10°C° 0 mm 1 mps 683 mmHg 25%
    06:00 +12°C° 0 mm 1 mps 684 mmHg 22%
    07:00 +13°C° 0 mm 1 mps 685 mmHg 19%
    08:00 +15°C° 0 mm 1 mps 685 mmHg 16%
    09:00 +16°C° 0 mm 2 mps 686 mmHg 15%
    10:00 +18°C° 0 mm 2 mps 686 mmHg 14%
    11:00 +19°C° 0 mm 3 mps 687 mmHg 13%
    12:00 +20°C° 0 mm 3 mps 686 mmHg 13%
    13:00 +20°C° 0 mm 3 mps 686 mmHg 14%
    14:00 +21°C° 0 mm 3 mps 685 mmHg 15%
    15:00 +20°C° 0 mm 3 mps 685 mmHg 18%
    16:00 +19°C° 0 mm 3 mps 685 mmHg 21%
    17:00 +18°C° 0 mm 3 mps 685 mmHg 24%
    18:00 +17°C° 0 mm 2 mps 685 mmHg 26%
    19:00 +16°C° 0 mm 2 mps 685 mmHg 29%
    20:00 +15°C° 0 mm 2 mps 685 mmHg 31%
    21:00 +15°C° 0 mm 2 mps 685 mmHg 31%
    22:00 +14°C° 0 mm 2 mps 685 mmHg 31%
    23:00 +14°C° 0 mm 1 mps 685 mmHg 31%
    Show more